Location: Brasstown
(34.8693°N, 83.8104°W)
Time: 16:06:39
(UTC-04:00)

X-37B - Visible Passes

Search period start: 31 October 2020 00:00
Search period end: 09 November 2020 23:00
Orbit: 382 x 392 km, 45.0° (Epoch: 15 October)

Date Brightness Start Highest point End Pass type
(mag) Time Alt. Az. Time Alt. Az. Time Alt. Az.
01 Nov 1.7 05:31:56 23° SSW 05:33:29 41° SE 05:36:29 10° ENE visible
02 Nov 3.9 04:36:45 13° E 04:36:45 13° E 04:37:25 10° E visible
02 Nov 1.0 06:09:04 15° W 06:11:29 45° NNW 06:14:33 10° NE visible
03 Nov 1.5 05:13:42 46° ENE 05:13:42 46° ENE 05:16:03 10° ENE visible
04 Nov 1.8 05:50:29 25° NW 05:51:04 27° NNW 05:53:50 10° NE visible
05 Nov 3.5 04:54:50 14° NE 04:54:50 14° NE 04:55:26 10° NE visible
05 Nov 2.7 06:27:37 10° NW 06:29:33 15° N 06:31:30 10° NNE visible
06 Nov 2.6 05:31:23 18° N 05:31:23 18° N 05:33:05 10° NNE visible
07 Nov 2.9 06:07:52 11° NNW 06:09:19 13° N 06:10:57 10° NNE visible
08 Nov 3.5 05:12:01 11° NNE 05:12:01 11° NNE 05:12:23 10° NNE visible
09 Nov 3.0 05:48:25 12° N 05:49:05 13° N 05:50:41 10° NNE visible
